LRQ039J SCEL-SBSG

Flight info

Callsign LRQ039J
Flight time 5h 25m
Altitude 37000
Route GUVOL4A GUVOL UZ128 CBA UL531 FOZ UZ65 ILMIS/N0458F390 UZ65 ANSOK UM654 OPMET UZ84 VUGID UZ78 TOSAD
Aircraft CL60/M-SBDE1E2E3FGHIJ1J4J5J7M3RWXYZ/LB1V1D1

Departure

Time 2026-05-06 10:02
Airport Comodoro Arturo Merino Benítez International Airport (SCEL)

Arrival

Time 2026-05-06 15:27
Airport Rio Grande do Norte/São Gonçalo do Amarante–Governador Aluízio Alves International Airport (SBSG)
Time Latitude Longitude Altitude Speed Heading
2026-05-06 09:41 -33.38911 -70.79563 1562 ft 0 kts 328°
2026-05-06 09:55 -33.38896 -70.79563 1562 ft 6 kts 38°
2026-05-06 09:55 -33.38942 -70.79518 1562 ft 11 kts 181°
2026-05-06 09:55 -33.39006 -70.79491 1562 ft 9 kts 104°
2026-05-06 09:55 -33.39004 -70.79410 1562 ft 10 kts 90°
2026-05-06 09:56 -33.39002 -70.79314 1562 ft 12 kts 88°
2026-05-06 09:56 -33.39005 -70.79205 1562 ft 13 kts 111°
2026-05-06 09:56 -33.39020 -70.79099 1562 ft 12 kts 80°
2026-05-06 09:56 -33.39018 -70.78986 1562 ft 14 kts 87°
2026-05-06 09:57 -33.38979 -70.78920 1562 ft 11 kts 352°
2026-05-06 09:57 -33.38888 -70.78925 1562 ft 15 kts 358°
2026-05-06 09:57 -33.38768 -70.78932 1562 ft 18 kts 357°
2026-05-06 09:57 -33.38635 -70.78939 1562 ft 19 kts 358°
2026-05-06 09:58 -33.38497 -70.78947 1562 ft 20 kts 358°
2026-05-06 09:58 -33.38377 -70.78953 1562 ft 12 kts 357°
2026-05-06 09:58 -33.38354 -70.78894 1562 ft 10 kts 92°
2026-05-06 09:58 -33.38318 -70.78828 1562 ft 11 kts 357°
2026-05-06 09:59 -33.38233 -70.78834 1562 ft 12 kts 358°
2026-05-06 09:59 -33.38139 -70.78836 1562 ft 14 kts 359°
2026-05-06 09:59 -33.38036 -70.78840 1562 ft 15 kts 358°
2026-05-06 09:59 -33.37925 -70.78844 1562 ft 16 kts 358°
2026-05-06 10:00 -33.37807 -70.78851 1562 ft 17 kts 358°
2026-05-06 10:00 -33.37698 -70.78855 1562 ft 12 kts 358°
2026-05-06 10:00 -33.37616 -70.78832 1562 ft 12 kts 56°
2026-05-06 10:00 -33.37609 -70.78740 1562 ft 11 kts 86°
2026-05-06 10:01 -33.37652 -70.78669 1562 ft 4 kts 178°
2026-05-06 10:01 -33.37655 -70.78669 1562 ft 0 kts 179°
2026-05-06 10:01 -33.37812 -70.78662 1562 ft 65 kts 177°
2026-05-06 10:01 -33.38566 -70.78619 1562 ft 144 kts 177°
2026-05-06 10:02 -33.39744 -70.78563 1783 ft 182 kts 178°
2026-05-06 10:02 -33.41047 -70.78515 2456 ft 195 kts 178°
2026-05-06 10:02 -33.42430 -70.78448 3340 ft 204 kts 178°
2026-05-06 10:02 -33.43823 -70.78397 4358 ft 205 kts 184°
2026-05-06 10:03 -33.45157 -70.78879 5317 ft 206 kts 221°
2026-05-06 10:03 -33.45909 -70.80222 6271 ft 197 kts 266°
2026-05-06 10:03 -33.46093 -70.81808 7144 ft 200 kts 271°
2026-05-06 10:03 -33.46187 -70.83585 7563 ft 234 kts 271°
2026-05-06 10:04 -33.46318 -70.85658 8032 ft 262 kts 270°
2026-05-06 10:04 -33.46474 -70.87895 8677 ft 278 kts 272°
2026-05-06 10:04 -33.46640 -70.90226 8952 ft 282 kts 271°
2026-05-06 10:04 -33.46803 -70.92529 8994 ft 276 kts 273°
2026-05-06 10:05 -33.46557 -70.94756 8979 ft 265 kts 296°
2026-05-06 10:05 -33.45609 -70.96542 8986 ft 252 kts 318°
2026-05-06 10:05 -33.44114 -70.97720 9190 ft 267 kts 340°
2026-05-06 10:05 -33.42295 -70.98120 9925 ft 271 kts 357°
2026-05-06 10:06 -33.40420 -70.97982 10662 ft 275 kts
2026-05-06 10:06 -33.38451 -70.97796 11212 ft 294 kts
2026-05-06 10:06 -33.36343 -70.97602 11759 ft 311 kts
2026-05-06 10:06 -33.34170 -70.97399 12511 ft 320 kts
2026-05-06 10:07 -33.31941 -70.97189 13337 ft 324 kts
2026-05-06 10:07 -33.29691 -70.96978 14239 ft 327 kts 359°
2026-05-06 10:07 -33.27414 -70.96764 15002 ft 332 kts 359°
2026-05-06 10:07 -33.25110 -70.96549 15786 ft 336 kts 358°
2026-05-06 10:08 -33.22776 -70.96290 16494 ft 343 kts
2026-05-06 10:08 -33.20434 -70.95416 17233 ft 360 kts 18°
2026-05-06 10:08 -33.18301 -70.93774 17842 ft 374 kts 28°
2026-05-06 10:08 -33.16172 -70.91939 18534 ft 377 kts 26°
2026-05-06 10:09 -33.14033 -70.90111 19088 ft 383 kts 26°
2026-05-06 10:09 -33.11856 -70.88253 19555 ft 389 kts 26°
2026-05-06 10:09 -33.09639 -70.86361 20124 ft 394 kts 26°
2026-05-06 10:09 -33.07425 -70.84473 20639 ft 400 kts 25°
2026-05-06 10:10 -33.05145 -70.82531 21047 ft 407 kts 26°
2026-05-06 10:10 -33.02859 -70.80527 21672 ft 409 kts 26°
2026-05-06 10:10 -33.00557 -70.78477 22193 ft 414 kts 26°
2026-05-06 10:10 -32.98241 -70.76421 22704 ft 418 kts 26°
2026-05-06 10:11 -32.95893 -70.74339 23144 ft 423 kts 26°
2026-05-06 10:11 -32.93532 -70.72247 23615 ft 426 kts 25°
2026-05-06 10:11 -32.91040 -70.70515 24054 ft 409 kts 11°
2026-05-06 10:11 -32.88353 -70.69669 24608 ft 389 kts 356°
2026-05-06 10:12 -32.85689 -70.69431 25116 ft 385 kts 352°
2026-05-06 10:12 -32.82991 -70.69260 25657 ft 386 kts 353°
2026-05-06 10:12 -32.80324 -70.69086 26115 ft 389 kts 352°
2026-05-06 10:12 -32.77620 -70.68907 26646 ft 389 kts 352°
2026-05-06 10:13 -32.74893 -70.68731 26938 ft 395 kts 352°
2026-05-06 10:13 -32.72113 -70.68549 27294 ft 398 kts 352°
2026-05-06 10:13 -32.69347 -70.68366 27720 ft 399 kts 351°
2026-05-06 10:13 -32.66556 -70.68018 28060 ft 413 kts 359°
2026-05-06 10:14 -32.63736 -70.67062 28402 ft 433 kts
2026-05-06 10:14 -32.60984 -70.65366 28733 ft 457 kts 21°
2026-05-06 10:14 -32.58543 -70.62895 29123 ft 482 kts 36°
2026-05-06 10:14 -32.56533 -70.59563 29375 ft 505 kts 47°
2026-05-06 10:15 -32.54714 -70.55998 29634 ft 508 kts 47°
2026-05-06 10:15 -32.52898 -70.52451 30002 ft 508 kts 47°
2026-05-06 10:15 -32.51066 -70.48881 30336 ft 508 kts 47°
2026-05-06 10:15 -32.49232 -70.45310 30650 ft 509 kts 47°
2026-05-06 10:16 -32.47381 -70.41717 30845 ft 513 kts 47°
2026-05-06 10:16 -32.45519 -70.38103 31083 ft 515 kts 47°
2026-05-06 10:16 -32.43667 -70.34510 31413 ft 514 kts 46°
2026-05-06 10:16 -32.41804 -70.30897 31698 ft 515 kts 46°
2026-05-06 10:17 -32.39947 -70.27303 31942 ft 515 kts 46°
2026-05-06 10:17 -32.38186 -70.23576 32231 ft 526 kts 53°
2026-05-06 10:17 -32.36838 -70.19523 32538 ft 539 kts 62°
2026-05-06 10:17 -32.35939 -70.15163 32775 ft 550 kts 71°
2026-05-06 10:18 -32.35268 -70.10690 32973 ft 553 kts 72°
2026-05-06 10:18 -32.34594 -70.06225 33202 ft 553 kts 71°
2026-05-06 10:18 -32.33920 -70.01811 33433 ft 553 kts 70°
2026-05-06 10:18 -32.33227 -69.97321 33564 ft 556 kts 71°
2026-05-06 10:19 -32.32532 -69.92865 33772 ft 557 kts 71°
2026-05-06 10:19 -32.31830 -69.88380 34054 ft 554 kts 71°
2026-05-06 10:19 -32.31117 -69.83868 34184 ft 555 kts 71°
2026-05-06 10:19 -32.30410 -69.79425 34396 ft 557 kts 70°
2026-05-06 10:20 -32.29698 -69.74963 34730 ft 553 kts 70°
2026-05-06 10:20 -32.28986 -69.70532 35005 ft 551 kts 70°
2026-05-06 10:20 -32.28265 -69.66069 35149 ft 552 kts 72°
2026-05-06 10:20 -32.27540 -69.61613 35254 ft 554 kts 71°
2026-05-06 10:21 -32.26817 -69.57171 35571 ft 551 kts 70°
2026-05-06 10:21 -32.26093 -69.52735 35852 ft 548 kts 70°
2026-05-06 10:21 -32.25382 -69.48397 36153 ft 544 kts 71°
2026-05-06 10:21 -32.24659 -69.44009 36345 ft 544 kts 71°
2026-05-06 10:22 -32.23937 -69.39650 36542 ft 543 kts 72°
2026-05-06 10:22 -32.23213 -69.35288 36698 ft 543 kts 71°
2026-05-06 10:22 -32.22488 -69.30933 36876 ft 540 kts 71°
2026-05-06 10:22 -32.21760 -69.26560 37132 ft 536 kts 72°
2026-05-06 10:23 -32.21042 -69.22269 37258 ft 536 kts 71°
2026-05-06 10:23 -32.20318 -69.17961 37242 ft 539 kts 72°
2026-05-06 10:23 -32.18853 -69.09280 37173 ft 545 kts 71°
2026-05-06 10:24 -32.17364 -69.00497 37184 ft 548 kts 72°
2026-05-06 10:24 -32.15859 -68.91656 37081 ft 553 kts 71°
2026-05-06 10:25 -32.14346 -68.82803 37022 ft 553 kts 72°
2026-05-06 10:25 -32.12830 -68.73968 36987 ft 551 kts 71°
2026-05-06 10:26 -32.11312 -68.65160 36943 ft 548 kts 71°
2026-05-06 10:26 -32.09795 -68.56403 36904 ft 548 kts 71°
2026-05-06 10:27 -32.08274 -68.47663 36870 ft 547 kts 71°
2026-05-06 10:27 -32.06736 -68.38864 36857 ft 545 kts 72°
2026-05-06 10:28 -32.05234 -68.30151 36866 ft 544 kts 71°
2026-05-06 10:28 -32.03782 -68.21435 36835 ft 543 kts 71°
2026-05-06 10:29 -32.02331 -68.12766 36832 ft 542 kts 72°
2026-05-06 10:29 -32.00863 -68.04044 36833 ft 543 kts 71°
2026-05-06 10:30 -31.99445 -67.95651 36814 ft 542 kts 72°
2026-05-06 10:30 -31.98000 -67.87127 36806 ft 541 kts 71°
2026-05-06 10:31 -31.96521 -67.78451 36817 ft 540 kts 72°
2026-05-06 10:31 -31.95042 -67.69810 36815 ft 541 kts 71°
2026-05-06 10:32 -31.93553 -67.61154 36800 ft 541 kts 71°
2026-05-06 10:32 -31.92062 -67.52515 36791 ft 540 kts 72°
2026-05-06 10:33 -31.90576 -67.43941 36797 ft 538 kts 71°
2026-05-06 10:33 -31.89078 -67.35342 36791 ft 539 kts 72°
2026-05-06 10:34 -31.87564 -67.26681 36799 ft 539 kts 71°
2026-05-06 10:34 -31.86060 -67.18113 36800 ft 538 kts 71°
2026-05-06 10:35 -31.84539 -67.09485 36789 ft 538 kts 71°
2026-05-06 10:35 -31.83017 -67.00887 36797 ft 538 kts 71°
2026-05-06 10:36 -31.81488 -66.92283 36788 ft 538 kts 71°
2026-05-06 10:36 -31.79961 -66.83730 36796 ft 538 kts 71°
2026-05-06 10:37 -31.78423 -66.75156 36804 ft 539 kts 71°
2026-05-06 10:37 -31.76583 -66.66694 36798 ft 533 kts 65°
2026-05-06 10:38 -31.74383 -66.58389 36793 ft 532 kts 65°
2026-05-06 10:38 -31.72195 -66.50124 36796 ft 532 kts 65°
2026-05-06 10:39 -31.70008 -66.41880 36800 ft 532 kts 65°
2026-05-06 10:39 -31.67797 -66.33562 36796 ft 532 kts 64°
2026-05-06 10:40 -31.65600 -66.25313 36806 ft 531 kts 64°
2026-05-06 10:40 -31.63409 -66.17112 36798 ft 531 kts 65°
2026-05-06 10:41 -31.61199 -66.08862 36792 ft 533 kts 64°
2026-05-06 10:41 -31.58969 -66.00559 36799 ft 533 kts 65°
2026-05-06 10:42 -31.56751 -65.92317 36781 ft 533 kts 65°
2026-05-06 10:42 -31.54514 -65.84032 36801 ft 533 kts 65°
2026-05-06 10:43 -31.52282 -65.75790 36796 ft 534 kts 65°
2026-05-06 10:44 -31.48912 -65.63382 36817 ft 535 kts 65°
2026-05-06 10:44 -31.46657 -65.55109 36816 ft 534 kts 65°
2026-05-06 10:45 -31.44391 -65.46819 36831 ft 535 kts 65°
2026-05-06 10:45 -31.42122 -65.38541 36868 ft 536 kts 65°
2026-05-06 10:46 -31.39867 -65.30248 36895 ft 538 kts 66°
2026-05-06 10:46 -31.38620 -65.21699 36923 ft 549 kts 80°
2026-05-06 10:47 -31.38007 -65.12800 36923 ft 550 kts 80°
2026-05-06 10:47 -31.37386 -65.03912 36933 ft 551 kts 81°
2026-05-06 10:48 -31.36760 -64.95017 36945 ft 552 kts 81°
2026-05-06 10:48 -31.36124 -64.86060 36977 ft 552 kts 81°
2026-05-06 10:49 -31.35488 -64.77179 37011 ft 553 kts 81°
2026-05-06 10:49 -31.34844 -64.68252 36977 ft 553 kts 81°
2026-05-06 10:50 -31.34189 -64.59270 36928 ft 554 kts 80°
2026-05-06 10:50 -31.33535 -64.50362 36881 ft 553 kts 80°
2026-05-06 10:51 -31.32872 -64.41415 36867 ft 552 kts 80°
2026-05-06 10:51 -31.32205 -64.32528 36851 ft 552 kts 79°
2026-05-06 10:52 -31.30814 -64.23808 36845 ft 540 kts 66°
2026-05-06 10:52 -31.28036 -64.15827 36837 ft 527 kts 53°
2026-05-06 10:53 -31.24100 -64.08720 36843 ft 515 kts 43°
2026-05-06 10:53 -31.19891 -64.01967 36838 ft 517 kts 44°
2026-05-06 10:54 -31.15675 -63.95204 36832 ft 517 kts 43°
2026-05-06 10:54 -31.11458 -63.88446 36838 ft 516 kts 43°
2026-05-06 10:55 -31.07251 -63.81715 36826 ft 516 kts 43°
2026-05-06 10:55 -31.03163 -63.75190 36826 ft 516 kts 43°
2026-05-06 10:56 -30.98923 -63.68430 36824 ft 517 kts 43°
2026-05-06 10:56 -30.94785 -63.61843 36823 ft 518 kts 44°
2026-05-06 10:57 -30.90530 -63.55043 36817 ft 520 kts 45°
2026-05-06 10:57 -30.86353 -63.48196 36814 ft 520 kts 44°
2026-05-06 10:58 -30.82180 -63.41366 36819 ft 520 kts 45°
2026-05-06 10:58 -30.77992 -63.34527 36811 ft 520 kts 44°
2026-05-06 10:59 -30.73759 -63.27741 36819 ft 519 kts 43°
2026-05-06 10:59 -30.69517 -63.20981 36805 ft 520 kts 43°
2026-05-06 11:00 -30.65264 -63.14214 36806 ft 520 kts 44°
2026-05-06 11:00 -30.61019 -63.07471 36794 ft 520 kts 44°
2026-05-06 11:01 -30.56739 -63.00685 36799 ft 521 kts 44°
2026-05-06 11:01 -30.52454 -62.93901 36797 ft 521 kts 44°
2026-05-06 11:02 -30.48185 -62.87154 36797 ft 523 kts 44°
2026-05-06 11:02 -30.43882 -62.80364 36800 ft 523 kts 45°
2026-05-06 11:03 -30.39587 -62.73600 36806 ft 523 kts 44°
2026-05-06 11:03 -30.35282 -62.66835 36811 ft 524 kts 44°
2026-05-06 11:04 -30.30945 -62.60062 36816 ft 523 kts 44°
2026-05-06 11:04 -30.26617 -62.53313 36826 ft 523 kts 45°
2026-05-06 11:05 -30.22313 -62.46612 36818 ft 523 kts 44°
2026-05-06 11:05 -30.17966 -62.39856 36821 ft 523 kts 44°
2026-05-06 11:06 -30.13641 -62.33147 36824 ft 524 kts 44°
2026-05-06 11:06 -30.09288 -62.26403 36819 ft 523 kts 44°
2026-05-06 11:07 -30.04959 -62.19709 36824 ft 523 kts 45°
2026-05-06 11:07 -30.00611 -62.12996 36828 ft 522 kts 44°
2026-05-06 11:08 -29.96251 -62.06279 36830 ft 524 kts 44°
2026-05-06 11:08 -29.91914 -61.99604 36832 ft 523 kts 44°
2026-05-06 11:09 -29.87549 -61.92932 36829 ft 520 kts 43°
2026-05-06 11:09 -29.82742 -61.86859 36830 ft 514 kts 37°
2026-05-06 11:10 -29.77841 -61.80852 36831 ft 515 kts 37°
2026-05-06 11:10 -29.72923 -61.74827 36834 ft 516 kts 38°
2026-05-06 11:11 -29.68035 -61.68847 36825 ft 516 kts 38°
2026-05-06 11:11 -29.63124 -61.62843 36827 ft 516 kts 38°
2026-05-06 11:12 -29.58208 -61.56842 36830 ft 516 kts 38°
2026-05-06 11:12 -29.53310 -61.50873 36836 ft 517 kts 38°
2026-05-06 11:13 -29.48355 -61.44841 36832 ft 518 kts 38°
2026-05-06 11:13 -29.43429 -61.38853 36844 ft 519 kts 38°
2026-05-06 11:14 -29.38496 -61.32866 36838 ft 519 kts 38°
2026-05-06 11:14 -29.33540 -61.26858 36836 ft 517 kts 38°
2026-05-06 11:15 -29.28610 -61.20890 36839 ft 517 kts 38°
2026-05-06 11:15 -29.23652 -61.14901 36840 ft 518 kts 38°
2026-05-06 11:16 -29.18692 -61.08916 36849 ft 518 kts 38°
2026-05-06 11:16 -29.13754 -61.02966 36851 ft 518 kts 38°
2026-05-06 11:17 -29.08787 -60.97018 36848 ft 518 kts 38°
2026-05-06 11:17 -29.03786 -60.91108 36850 ft 518 kts 38°
2026-05-06 11:18 -28.98758 -60.85174 36856 ft 519 kts 38°
2026-05-06 11:18 -28.93751 -60.79274 36856 ft 520 kts 38°
2026-05-06 11:19 -28.88710 -60.73340 36855 ft 519 kts 38°
2026-05-06 11:19 -28.83703 -60.67455 36859 ft 518 kts 38°
2026-05-06 11:20 -28.78696 -60.61578 36860 ft 517 kts 38°
2026-05-06 11:20 -28.73724 -60.55686 36866 ft 518 kts 39°
2026-05-06 11:21 -28.68737 -60.49756 36874 ft 518 kts 39°
2026-05-06 11:21 -28.63726 -60.43808 36874 ft 519 kts 39°
2026-05-06 11:22 -28.58749 -60.37908 36875 ft 519 kts 39°
2026-05-06 11:22 -28.53772 -60.32015 36879 ft 518 kts 38°
2026-05-06 11:23 -28.48766 -60.26100 36880 ft 518 kts 39°
2026-05-06 11:23 -28.43775 -60.20209 36885 ft 518 kts 39°
2026-05-06 11:24 -28.38787 -60.14332 36891 ft 519 kts 39°
2026-05-06 11:24 -28.33784 -60.08445 36890 ft 519 kts 39°
2026-05-06 11:25 -28.28759 -60.02541 36893 ft 520 kts 38°
2026-05-06 11:25 -28.23735 -59.96645 36889 ft 519 kts 39°
2026-05-06 11:26 -28.18724 -59.90774 36890 ft 520 kts 39°
2026-05-06 11:26 -28.13714 -59.84914 36892 ft 520 kts 39°
2026-05-06 11:27 -28.08670 -59.79026 36896 ft 520 kts 39°
2026-05-06 11:27 -28.03624 -59.73199 36898 ft 521 kts 39°
2026-05-06 11:28 -27.98560 -59.67360 36897 ft 521 kts 39°
2026-05-06 11:28 -27.93479 -59.61510 36901 ft 521 kts 39°
2026-05-06 11:29 -27.88407 -59.55678 36904 ft 521 kts 39°
2026-05-06 11:29 -27.83314 -59.49830 36905 ft 521 kts 39°
2026-05-06 11:30 -27.78251 -59.44025 36906 ft 521 kts 39°
2026-05-06 11:30 -27.73179 -59.38218 36907 ft 522 kts 39°
2026-05-06 11:31 -27.68063 -59.32368 36911 ft 521 kts 39°
2026-05-06 11:31 -27.62999 -59.26585 36913 ft 521 kts 39°
2026-05-06 11:32 -27.57897 -59.20768 36923 ft 521 kts 39°
2026-05-06 11:32 -27.52832 -59.15000 36930 ft 521 kts 39°
2026-05-06 11:33 -27.47780 -59.09137 36927 ft 524 kts 44°
2026-05-06 11:33 -27.43571 -59.02405 36935 ft 533 kts 58°
2026-05-06 11:34 -27.40440 -58.94777 36933 ft 537 kts 64°
2026-05-06 11:34 -27.37460 -58.87121 36936 ft 537 kts 64°
2026-05-06 11:35 -27.34480 -58.79478 36935 ft 537 kts 64°
2026-05-06 11:35 -27.31484 -58.71811 36938 ft 536 kts 64°
2026-05-06 11:36 -27.28495 -58.64173 36937 ft 535 kts 64°
2026-05-06 11:36 -27.25501 -58.56538 36938 ft 535 kts 64°
2026-05-06 11:37 -27.22506 -58.48913 36941 ft 536 kts 64°
2026-05-06 11:37 -27.19517 -58.41249 36945 ft 536 kts 64°
2026-05-06 11:38 -27.16555 -58.33591 36942 ft 535 kts 64°
2026-05-06 11:38 -27.13596 -58.25959 36947 ft 534 kts 64°
2026-05-06 11:39 -27.10646 -58.18365 36947 ft 534 kts 64°
2026-05-06 11:39 -27.07683 -58.10751 36950 ft 533 kts 64°
2026-05-06 11:40 -27.04711 -58.03129 36954 ft 534 kts 64°
2026-05-06 11:40 -27.01741 -57.95527 36957 ft 534 kts 65°
2026-05-06 11:41 -26.98774 -57.87949 36950 ft 535 kts 65°
2026-05-06 11:41 -26.95788 -57.80336 36961 ft 534 kts 65°
2026-05-06 11:42 -26.92802 -57.72735 36960 ft 535 kts 64°
2026-05-06 11:42 -26.89801 -57.65112 36961 ft 534 kts 65°
2026-05-06 11:43 -26.86819 -57.57553 36967 ft 534 kts 65°
2026-05-06 11:43 -26.83783 -57.49953 36977 ft 534 kts 64°
2026-05-06 11:44 -26.79213 -57.38680 36986 ft 534 kts 64°
2026-05-06 11:44 -26.76143 -57.31119 36985 ft 534 kts 64°
2026-05-06 11:45 -26.73076 -57.23572 36989 ft 533 kts 64°
2026-05-06 11:45 -26.70006 -57.16029 36996 ft 533 kts 64°
2026-05-06 11:46 -26.66940 -57.08508 37002 ft 533 kts 64°
2026-05-06 11:46 -26.63877 -57.01011 37006 ft 533 kts 64°
2026-05-06 11:47 -26.60808 -56.93509 37007 ft 533 kts 64°
2026-05-06 11:47 -26.57717 -56.85967 37007 ft 533 kts 64°
2026-05-06 11:48 -26.54652 -56.78503 37005 ft 532 kts 64°
2026-05-06 11:48 -26.51571 -56.71015 37011 ft 532 kts 65°
2026-05-06 11:49 -26.48497 -56.63557 37019 ft 531 kts 64°
2026-05-06 11:49 -26.45417 -56.56096 37014 ft 531 kts 65°
2026-05-06 11:50 -26.42331 -56.48635 37025 ft 531 kts 64°
2026-05-06 11:50 -26.39238 -56.41170 37022 ft 531 kts 64°
2026-05-06 11:51 -26.36143 -56.33714 37027 ft 530 kts 64°
2026-05-06 11:51 -26.33051 -56.26278 37027 ft 530 kts 64°
2026-05-06 11:52 -26.29948 -56.18829 37031 ft 530 kts 64°
2026-05-06 11:52 -26.26867 -56.11446 37033 ft 530 kts 64°
2026-05-06 11:53 -26.23768 -56.04033 37036 ft 529 kts 64°
2026-05-06 11:53 -26.20664 -55.96621 37043 ft 529 kts 64°
2026-05-06 11:54 -26.17551 -55.89199 37052 ft 529 kts 65°
2026-05-06 11:54 -26.14442 -55.81804 37060 ft 529 kts 65°
2026-05-06 11:55 -26.11327 -55.74402 37067 ft 528 kts 65°
2026-05-06 11:55 -26.08227 -55.67051 37074 ft 529 kts 65°
2026-05-06 11:56 -26.05111 -55.59673 37088 ft 529 kts 65°
2026-05-06 11:56 -26.01970 -55.52249 37078 ft 529 kts 65°
2026-05-06 11:57 -25.98845 -55.44876 37085 ft 529 kts 65°
2026-05-06 11:57 -25.95733 -55.37545 37095 ft 529 kts 65°
2026-05-06 11:58 -25.92601 -55.30181 37088 ft 528 kts 64°
2026-05-06 11:58 -25.89467 -55.22826 37092 ft 528 kts 64°
2026-05-06 11:59 -25.86329 -55.15472 37094 ft 528 kts 64°
2026-05-06 11:59 -25.83204 -55.08161 37093 ft 528 kts 64°
2026-05-06 12:00 -25.80040 -55.00773 37100 ft 528 kts 64°
2026-05-06 12:00 -25.76897 -54.93444 37109 ft 528 kts 64°
2026-05-06 12:01 -25.73751 -54.86122 37110 ft 528 kts 65°
2026-05-06 12:01 -25.70577 -54.78749 37105 ft 528 kts 65°
2026-05-06 12:02 -25.67428 -54.71444 37108 ft 528 kts 65°
2026-05-06 12:02 -25.64276 -54.64144 37119 ft 528 kts 65°
2026-05-06 12:03 -25.61104 -54.56812 37127 ft 528 kts 65°
2026-05-06 12:03 -25.57844 -54.49560 37124 ft 528 kts 59°
2026-05-06 12:04 -25.53924 -54.42690 37126 ft 528 kts 57°
2026-05-06 12:04 -25.49989 -54.35858 37129 ft 529 kts 57°
2026-05-06 12:05 -25.46049 -54.29025 37136 ft 528 kts 57°
2026-05-06 12:05 -25.42096 -54.22179 37136 ft 528 kts 57°
2026-05-06 12:06 -25.38142 -54.15340 37156 ft 528 kts 57°
2026-05-06 12:06 -25.34181 -54.08498 37150 ft 528 kts 57°
2026-05-06 12:07 -25.30257 -54.01731 37156 ft 527 kts 57°
2026-05-06 12:07 -25.26300 -53.94915 37165 ft 527 kts 58°
2026-05-06 12:08 -25.22345 -53.88136 37163 ft 527 kts 56°
2026-05-06 12:08 -25.18075 -53.81526 37183 ft 527 kts 54°
2026-05-06 12:09 -25.13822 -53.75011 37187 ft 527 kts 54°
2026-05-06 12:09 -25.09510 -53.68443 37203 ft 527 kts 54°
2026-05-06 12:10 -25.05211 -53.61915 37220 ft 526 kts 54°
2026-05-06 12:10 -25.00913 -53.55396 37223 ft 526 kts 54°
2026-05-06 12:11 -24.96616 -53.48887 37233 ft 527 kts 54°
2026-05-06 12:11 -24.92331 -53.42404 37230 ft 527 kts 54°
2026-05-06 12:12 -24.88005 -53.35867 37227 ft 527 kts 54°
2026-05-06 12:12 -24.83691 -53.29357 37222 ft 526 kts 54°
2026-05-06 12:13 -24.79383 -53.22863 37215 ft 526 kts 54°
2026-05-06 12:13 -24.75078 -53.16384 37215 ft 526 kts 54°
2026-05-06 12:14 -24.70768 -53.09906 37203 ft 526 kts 54°
2026-05-06 12:14 -24.66438 -53.03397 37204 ft 526 kts 54°
2026-05-06 12:15 -24.62126 -52.96895 37195 ft 526 kts 54°
2026-05-06 12:15 -24.57828 -52.90425 37202 ft 526 kts 54°
2026-05-06 12:16 -24.53523 -52.83953 37212 ft 526 kts 54°
2026-05-06 12:16 -24.49202 -52.77465 37212 ft 527 kts 54°
2026-05-06 12:17 -24.44858 -52.70961 37215 ft 527 kts 54°
2026-05-06 12:17 -24.40521 -52.64526 37225 ft 526 kts 54°
2026-05-06 12:18 -24.36164 -52.58071 37225 ft 527 kts 54°
2026-05-06 12:18 -24.31808 -52.51625 37227 ft 527 kts 54°
2026-05-06 12:19 -24.27466 -52.45209 37229 ft 527 kts 54°
2026-05-06 12:19 -24.23093 -52.38753 37225 ft 527 kts 54°
2026-05-06 12:20 -24.18739 -52.32306 37223 ft 526 kts 54°
2026-05-06 12:20 -24.14391 -52.25876 37210 ft 526 kts 54°
2026-05-06 12:21 -24.10045 -52.19458 37201 ft 526 kts 54°
2026-05-06 12:21 -24.05700 -52.13048 37198 ft 526 kts 54°
2026-05-06 12:22 -24.01236 -52.06689 37535 ft 525 kts 53°
2026-05-06 12:22 -23.99018 -52.03563 37912 ft 520 kts 53°
2026-05-06 12:22 -23.96795 -52.00433 38276 ft 517 kts 53°
2026-05-06 12:23 -23.94611 -51.97358 38614 ft 513 kts 53°
2026-05-06 12:23 -23.92431 -51.94290 38841 ft 512 kts 53°
2026-05-06 12:23 -23.90250 -51.91222 39049 ft 512 kts 53°
2026-05-06 12:23 -23.88066 -51.88153 39150 ft 513 kts 53°
2026-05-06 12:24 -23.83676 -51.81987 39196 ft 518 kts 53°
2026-05-06 12:24 -23.79218 -51.75732 39218 ft 522 kts 53°
2026-05-06 12:25 -23.74750 -51.69472 39212 ft 525 kts 53°
2026-05-06 12:25 -23.70297 -51.63163 39223 ft 526 kts 53°
2026-05-06 12:26 -23.65829 -51.56829 39229 ft 526 kts 53°
2026-05-06 12:26 -23.61370 -51.50517 39229 ft 526 kts 53°
2026-05-06 12:27 -23.56909 -51.44209 39226 ft 525 kts 53°
2026-05-06 12:27 -23.52478 -51.37949 39231 ft 525 kts 54°
2026-05-06 12:28 -23.48053 -51.31583 39228 ft 524 kts 53°
2026-05-06 12:28 -23.43692 -51.25304 39230 ft 523 kts 54°
2026-05-06 12:29 -23.39307 -51.18997 39225 ft 523 kts 54°
2026-05-06 12:29 -23.34922 -51.12673 39222 ft 523 kts 56°
2026-05-06 12:30 -23.31345 -51.05839 39219 ft 520 kts 65°
2026-05-06 12:30 -23.28042 -50.98895 39218 ft 520 kts 65°
2026-05-06 12:31 -23.24726 -50.91939 39221 ft 521 kts 65°
2026-05-06 12:31 -23.21397 -50.84964 39215 ft 522 kts 65°
2026-05-06 12:32 -23.18041 -50.77944 39211 ft 522 kts 65°
2026-05-06 12:32 -23.14711 -50.70988 39217 ft 522 kts 65°
2026-05-06 12:33 -23.11359 -50.63998 39211 ft 522 kts 65°
2026-05-06 12:33 -23.08013 -50.57028 39206 ft 522 kts 65°
2026-05-06 12:34 -23.04669 -50.50073 39211 ft 521 kts 65°
2026-05-06 12:34 -23.01331 -50.43137 39207 ft 521 kts 66°
2026-05-06 12:35 -22.97975 -50.36165 39207 ft 521 kts 66°
2026-05-06 12:35 -22.94630 -50.29228 39208 ft 520 kts 65°
2026-05-06 12:36 -22.91270 -50.22269 39208 ft 520 kts 65°
2026-05-06 12:36 -22.87930 -50.15361 39210 ft 520 kts 65°
2026-05-06 12:37 -22.84559 -50.08396 39214 ft 521 kts 65°
2026-05-06 12:37 -22.81205 -50.01478 39216 ft 522 kts 65°
2026-05-06 12:38 -22.77828 -49.94523 39217 ft 522 kts 65°
2026-05-06 12:38 -22.74454 -49.87583 39217 ft 522 kts 65°
2026-05-06 12:39 -22.71087 -49.80673 39220 ft 521 kts 65°
2026-05-06 12:39 -22.67694 -49.73735 39221 ft 522 kts 65°
2026-05-06 12:40 -22.64295 -49.66794 39225 ft 523 kts 65°
2026-05-06 12:40 -22.60909 -49.59890 39226 ft 523 kts 65°
2026-05-06 12:41 -22.57501 -49.52950 39227 ft 523 kts 65°
2026-05-06 12:41 -22.54096 -49.46027 39229 ft 523 kts 66°
2026-05-06 12:42 -22.50687 -49.39104 39232 ft 523 kts 66°
2026-05-06 12:42 -22.47267 -49.32160 39232 ft 523 kts 66°
2026-05-06 12:43 -22.43837 -49.25206 39233 ft 523 kts 65°
2026-05-06 12:43 -22.40422 -49.18293 39239 ft 524 kts 66°
2026-05-06 12:44 -22.36860 -49.11422 39235 ft 525 kts 64°
2026-05-06 12:44 -22.33229 -49.04615 39241 ft 525 kts 64°
2026-05-06 12:45 -22.29590 -48.97798 39236 ft 525 kts 64°
2026-05-06 12:46 -22.24143 -48.87607 39223 ft 525 kts 64°
2026-05-06 12:46 -22.20491 -48.80782 39219 ft 525 kts 64°
2026-05-06 12:47 -22.16824 -48.73941 39219 ft 526 kts 64°
2026-05-06 12:47 -22.13183 -48.67159 39221 ft 526 kts 64°
2026-05-06 12:48 -22.09509 -48.60322 39220 ft 527 kts 64°
2026-05-06 12:48 -22.05849 -48.53521 39230 ft 527 kts 64°
2026-05-06 12:49 -22.02182 -48.46717 39225 ft 526 kts 64°
2026-05-06 12:49 -21.98508 -48.39906 39232 ft 527 kts 64°
2026-05-06 12:50 -21.94830 -48.33097 39235 ft 527 kts 63°
2026-05-06 12:50 -21.91149 -48.26291 39246 ft 528 kts 64°
2026-05-06 12:51 -21.87449 -48.19458 39242 ft 528 kts 64°
2026-05-06 12:51 -21.83765 -48.12654 39245 ft 528 kts 64°
2026-05-06 12:52 -21.80084 -48.05862 39251 ft 528 kts 64°
2026-05-06 12:52 -21.76386 -47.99059 39244 ft 528 kts 64°
2026-05-06 12:53 -21.72678 -47.92248 39237 ft 528 kts 64°
2026-05-06 12:53 -21.68975 -47.85448 39237 ft 528 kts 64°
2026-05-06 12:54 -21.65268 -47.78648 39238 ft 529 kts 64°
2026-05-06 12:54 -21.61562 -47.71859 39238 ft 529 kts 64°
2026-05-06 12:55 -21.57836 -47.65048 39240 ft 529 kts 64°
2026-05-06 12:55 -21.54095 -47.58220 39249 ft 529 kts 64°
2026-05-06 12:56 -21.50384 -47.51455 39259 ft 529 kts 64°
2026-05-06 12:56 -21.46667 -47.44689 39253 ft 529 kts 64°
2026-05-06 12:57 -21.42920 -47.37875 39254 ft 528 kts 64°
2026-05-06 12:57 -21.39007 -47.31210 39252 ft 531 kts 56°
2026-05-06 12:58 -21.34014 -47.25323 39266 ft 537 kts 43°
2026-05-06 12:58 -21.27966 -47.20613 39271 ft 539 kts 29°
2026-05-06 12:59 -21.21414 -47.16755 39276 ft 539 kts 27°
2026-05-06 12:59 -21.14849 -47.12911 39273 ft 539 kts 27°
2026-05-06 13:00 -21.08254 -47.09051 39277 ft 538 kts 27°
2026-05-06 13:00 -21.01681 -47.05206 39278 ft 537 kts 28°
2026-05-06 13:01 -20.95121 -47.01370 39275 ft 537 kts 28°
2026-05-06 13:01 -20.88592 -46.97556 39283 ft 537 kts 28°
2026-05-06 13:02 -20.82016 -46.93718 39285 ft 537 kts 28°
2026-05-06 13:02 -20.75456 -46.89892 39287 ft 538 kts 28°
2026-05-06 13:03 -20.68862 -46.86050 39279 ft 539 kts 28°
2026-05-06 13:03 -20.62293 -46.82226 39273 ft 538 kts 28°
2026-05-06 13:04 -20.55744 -46.78417 39269 ft 538 kts 28°
2026-05-06 13:04 -20.49175 -46.74600 39257 ft 538 kts 28°
2026-05-06 13:05 -20.42584 -46.70774 39278 ft 537 kts 28°
2026-05-06 13:05 -20.36152 -46.67044 39288 ft 537 kts 28°
2026-05-06 13:06 -20.29594 -46.63244 39298 ft 537 kts 28°
2026-05-06 13:06 -20.23010 -46.59433 39308 ft 537 kts 28°
2026-05-06 13:07 -20.16454 -46.55641 39309 ft 537 kts 28°
2026-05-06 13:07 -20.09896 -46.51852 39309 ft 538 kts 28°
2026-05-06 13:08 -20.03285 -46.48036 39308 ft 538 kts 28°
2026-05-06 13:08 -19.96727 -46.44254 39307 ft 537 kts 28°
2026-05-06 13:09 -19.90184 -46.40485 39303 ft 537 kts 28°
2026-05-06 13:09 -19.83585 -46.36686 39294 ft 536 kts 28°
2026-05-06 13:10 -19.77060 -46.32935 39293 ft 536 kts 28°
2026-05-06 13:10 -19.70484 -46.29158 39294 ft 536 kts 28°
2026-05-06 13:11 -19.63947 -46.25408 39286 ft 536 kts 28°
2026-05-06 13:11 -19.57352 -46.21627 39286 ft 536 kts 28°
2026-05-06 13:12 -19.50773 -46.17860 39286 ft 537 kts 28°
2026-05-06 13:12 -19.44212 -46.14108 39279 ft 537 kts 28°
2026-05-06 13:13 -19.37648 -46.10356 39271 ft 537 kts 27°
2026-05-06 13:13 -19.31077 -46.06604 39267 ft 537 kts 27°
2026-05-06 13:14 -19.24476 -46.02838 39270 ft 537 kts 28°
2026-05-06 13:14 -19.17908 -45.99095 39268 ft 537 kts 28°
2026-05-06 13:15 -19.11329 -45.95346 39268 ft 536 kts 27°
2026-05-06 13:15 -19.04783 -45.91619 39266 ft 535 kts 28°
2026-05-06 13:16 -18.98235 -45.87894 39265 ft 533 kts 27°
2026-05-06 13:16 -18.91700 -45.84179 39260 ft 533 kts 28°
2026-05-06 13:17 -18.85138 -45.80453 39261 ft 533 kts 27°
2026-05-06 13:17 -18.78625 -45.76761 39264 ft 533 kts 28°
2026-05-06 13:18 -18.72107 -45.73073 39265 ft 533 kts 28°
2026-05-06 13:18 -18.65563 -45.69374 39264 ft 533 kts 28°
2026-05-06 13:19 -18.59022 -45.65678 39257 ft 534 kts 27°
2026-05-06 13:19 -18.52456 -45.61973 39249 ft 534 kts 27°
2026-05-06 13:20 -18.45894 -45.58274 39246 ft 534 kts 27°
2026-05-06 13:20 -18.39264 -45.54715 39239 ft 534 kts 26°
2026-05-06 13:21 -18.32638 -45.51255 39237 ft 533 kts 26°
2026-05-06 13:21 -18.25990 -45.47786 39234 ft 533 kts 26°
2026-05-06 13:22 -18.19344 -45.44321 39235 ft 534 kts 26°
2026-05-06 13:22 -18.12689 -45.40854 39231 ft 534 kts 26°
2026-05-06 13:23 -18.06029 -45.37388 39229 ft 533 kts 26°
2026-05-06 13:23 -17.99379 -45.33927 39224 ft 533 kts 25°
2026-05-06 13:24 -17.92728 -45.30469 39226 ft 533 kts 25°
2026-05-06 13:24 -17.86050 -45.27000 39228 ft 533 kts 25°
2026-05-06 13:25 -17.79389 -45.23542 39230 ft 533 kts 25°
2026-05-06 13:25 -17.72742 -45.20094 39231 ft 533 kts 25°
2026-05-06 13:26 -17.66101 -45.16644 39227 ft 533 kts 26°
2026-05-06 13:26 -17.59545 -45.13033 39221 ft 534 kts 27°
2026-05-06 13:27 -17.52977 -45.09404 39219 ft 533 kts 27°
2026-05-06 13:27 -17.46392 -45.05770 39217 ft 533 kts 27°
2026-05-06 13:28 -17.39810 -45.02149 39217 ft 534 kts 26°
2026-05-06 13:28 -17.33176 -44.98672 39219 ft 534 kts 25°
2026-05-06 13:29 -17.26540 -44.95210 39218 ft 533 kts 26°
2026-05-06 13:29 -17.19884 -44.91741 39216 ft 533 kts 26°
2026-05-06 13:30 -17.13228 -44.88273 39215 ft 532 kts 26°
2026-05-06 13:30 -17.06603 -44.84824 39216 ft 532 kts 25°
2026-05-06 13:31 -16.99999 -44.81390 39211 ft 533 kts 25°
2026-05-06 13:31 -16.93326 -44.77922 39217 ft 533 kts 25°
2026-05-06 13:32 -16.86683 -44.74477 39212 ft 533 kts 25°
2026-05-06 13:32 -16.79767 -44.71662 39216 ft 531 kts 18°
2026-05-06 13:33 -16.72802 -44.69073 39211 ft 531 kts 17°
2026-05-06 13:33 -16.65843 -44.66486 39210 ft 531 kts 18°
2026-05-06 13:34 -16.58872 -44.63894 39208 ft 530 kts 18°
2026-05-06 13:34 -16.51940 -44.61319 39213 ft 529 kts 18°
2026-05-06 13:35 -16.45001 -44.58743 39207 ft 529 kts 18°
2026-05-06 13:35 -16.38457 -44.56313 39213 ft 528 kts 18°
2026-05-06 13:36 -16.31555 -44.53753 39208 ft 528 kts 17°
2026-05-06 13:36 -16.24590 -44.51172 39207 ft 527 kts 18°
2026-05-06 13:37 -16.17678 -44.48614 39203 ft 527 kts 17°
2026-05-06 13:37 -16.10774 -44.46059 39209 ft 528 kts 18°
2026-05-06 13:38 -16.03817 -44.43487 39206 ft 529 kts 18°
2026-05-06 13:38 -15.96889 -44.40928 39204 ft 529 kts 18°
2026-05-06 13:39 -15.89950 -44.38366 39200 ft 528 kts 17°
2026-05-06 13:39 -15.83052 -44.35820 39203 ft 527 kts 18°
2026-05-06 13:40 -15.76108 -44.33260 39203 ft 526 kts 17°
2026-05-06 13:40 -15.69185 -44.30710 39203 ft 526 kts 17°
2026-05-06 13:41 -15.62261 -44.28161 39194 ft 527 kts 17°
2026-05-06 13:41 -15.55343 -44.25616 39186 ft 527 kts 17°
2026-05-06 13:42 -15.48472 -44.23090 39177 ft 526 kts 17°
2026-05-06 13:42 -15.41560 -44.20551 39180 ft 526 kts 17°
2026-05-06 13:43 -15.34626 -44.18008 39181 ft 526 kts 17°
2026-05-06 13:43 -15.27687 -44.15464 39176 ft 525 kts 17°
2026-05-06 13:44 -15.20810 -44.12946 39173 ft 524 kts 17°
2026-05-06 13:44 -15.13908 -44.10414 39173 ft 525 kts 18°
2026-05-06 13:45 -15.07229 -44.07311 39168 ft 527 kts 24°
2026-05-06 13:45 -14.97308 -44.02437 39161 ft 526 kts 24°
2026-05-06 13:46 -14.90713 -43.99202 39156 ft 526 kts 24°
2026-05-06 13:46 -14.84088 -43.95956 39158 ft 525 kts 24°
2026-05-06 13:47 -14.77455 -43.92710 39158 ft 525 kts 24°
2026-05-06 13:47 -14.70851 -43.89481 39157 ft 525 kts 23°
2026-05-06 13:48 -14.64240 -43.86251 39160 ft 525 kts 24°
2026-05-06 13:48 -14.57630 -43.83025 39159 ft 525 kts 24°
2026-05-06 13:49 -14.51026 -43.79804 39162 ft 525 kts 24°
2026-05-06 13:49 -14.44421 -43.76585 39157 ft 525 kts 24°
2026-05-06 13:50 -14.37791 -43.73356 39157 ft 525 kts 23°
2026-05-06 13:50 -14.31185 -43.70141 39153 ft 525 kts 23°
2026-05-06 13:51 -14.24582 -43.66929 39140 ft 525 kts 23°
2026-05-06 13:51 -14.17978 -43.63719 39146 ft 525 kts 23°
2026-05-06 13:52 -14.11370 -43.60509 39143 ft 525 kts 24°
2026-05-06 13:52 -14.04765 -43.57303 39139 ft 524 kts 24°
2026-05-06 13:53 -13.98153 -43.54097 39138 ft 523 kts 24°
2026-05-06 13:53 -13.91540 -43.50891 39140 ft 523 kts 23°
2026-05-06 13:54 -13.84969 -43.47708 39139 ft 523 kts 24°
2026-05-06 13:54 -13.78383 -43.44519 39140 ft 522 kts 23°
2026-05-06 13:55 -13.71809 -43.41339 39142 ft 522 kts 23°
2026-05-06 13:55 -13.65229 -43.38157 39139 ft 523 kts 23°
2026-05-06 13:56 -13.58627 -43.34967 39140 ft 523 kts 23°
2026-05-06 13:56 -13.52054 -43.31792 39139 ft 522 kts 23°
2026-05-06 13:57 -13.45477 -43.28618 39139 ft 522 kts 23°
2026-05-06 13:57 -13.38865 -43.25429 39133 ft 522 kts 23°
2026-05-06 13:58 -13.32293 -43.22260 39139 ft 521 kts 23°
2026-05-06 13:58 -13.25761 -43.19113 39139 ft 520 kts 23°
2026-05-06 13:59 -13.19198 -43.15953 39147 ft 520 kts 23°
2026-05-06 13:59 -13.12652 -43.12803 39153 ft 519 kts 23°
2026-05-06 14:00 -13.06087 -43.09645 39165 ft 519 kts 23°
2026-05-06 14:00 -12.99540 -43.06498 39171 ft 519 kts 23°
2026-05-06 14:01 -12.92997 -43.03355 39170 ft 518 kts 23°
2026-05-06 14:01 -12.86417 -43.00195 39158 ft 518 kts 23°
2026-05-06 14:02 -12.79887 -42.97062 39153 ft 518 kts 22°
2026-05-06 14:02 -12.73385 -42.93943 39135 ft 517 kts 23°
2026-05-06 14:03 -12.66859 -42.90815 39145 ft 517 kts 22°
2026-05-06 14:03 -12.60349 -42.87695 39161 ft 516 kts 22°
2026-05-06 14:04 -12.53804 -42.84561 39135 ft 516 kts 23°
2026-05-06 14:04 -12.47293 -42.81447 39130 ft 516 kts 23°
2026-05-06 14:05 -12.40817 -42.78351 39133 ft 515 kts 22°
2026-05-06 14:05 -12.34292 -42.75234 39131 ft 515 kts 22°
2026-05-06 14:06 -12.27788 -42.72128 39116 ft 515 kts 22°
2026-05-06 14:06 -12.21287 -42.69025 39118 ft 514 kts 22°
2026-05-06 14:07 -12.14814 -42.65937 39150 ft 514 kts 22°
2026-05-06 14:07 -12.08343 -42.62852 39158 ft 513 kts 22°
2026-05-06 14:08 -12.01838 -42.59752 39191 ft 513 kts 22°
2026-05-06 14:08 -11.95369 -42.56669 39186 ft 512 kts 23°
2026-05-06 14:09 -11.88925 -42.53598 39190 ft 511 kts 23°
2026-05-06 14:09 -11.82472 -42.50523 39227 ft 510 kts 22°
2026-05-06 14:10 -11.76018 -42.47451 39224 ft 512 kts 22°
2026-05-06 14:10 -11.69556 -42.44376 39214 ft 512 kts 22°
2026-05-06 14:11 -11.63112 -42.41311 39194 ft 512 kts 23°
2026-05-06 14:11 -11.56624 -42.38226 39180 ft 512 kts 22°
2026-05-06 14:12 -11.50170 -42.35160 39173 ft 511 kts 22°
2026-05-06 14:12 -11.43725 -42.32098 39161 ft 510 kts 22°
2026-05-06 14:13 -11.37273 -42.29035 39164 ft 510 kts 22°
2026-05-06 14:13 -11.30847 -42.25987 39164 ft 510 kts 22°
2026-05-06 14:14 -11.24388 -42.22923 39151 ft 510 kts 22°
2026-05-06 14:14 -11.17917 -42.19855 39151 ft 509 kts 22°
2026-05-06 14:15 -11.11494 -42.16812 39138 ft 509 kts 22°
2026-05-06 14:15 -11.05063 -42.13766 39134 ft 509 kts 22°
2026-05-06 14:16 -10.98611 -42.10712 39122 ft 509 kts 22°
2026-05-06 14:16 -10.92182 -42.07668 39127 ft 509 kts 22°
2026-05-06 14:17 -10.85725 -42.04613 39121 ft 508 kts 22°
2026-05-06 14:17 -10.79262 -42.01556 39112 ft 508 kts 22°
2026-05-06 14:18 -10.72879 -41.98539 39109 ft 507 kts 22°
2026-05-06 14:18 -10.66430 -41.95496 39105 ft 507 kts 22°
2026-05-06 14:19 -10.60002 -41.92465 39106 ft 507 kts 22°
2026-05-06 14:19 -10.53607 -41.89451 39102 ft 506 kts 22°
2026-05-06 14:20 -10.47203 -41.86433 39107 ft 505 kts 22°
2026-05-06 14:20 -10.40788 -41.83412 39107 ft 505 kts 22°
2026-05-06 14:21 -10.34392 -41.80402 39109 ft 505 kts 22°
2026-05-06 14:21 -10.28033 -41.77409 39104 ft 505 kts 22°
2026-05-06 14:22 -10.21609 -41.74386 39107 ft 505 kts 22°
2026-05-06 14:22 -10.15228 -41.71385 39115 ft 505 kts 21°
2026-05-06 14:23 -10.08860 -41.68391 39116 ft 504 kts 21°
2026-05-06 14:23 -10.02483 -41.65395 39121 ft 504 kts 21°
2026-05-06 14:24 -9.96086 -41.62389 39121 ft 503 kts 21°
2026-05-06 14:24 -9.89752 -41.59415 39111 ft 502 kts 21°
2026-05-06 14:25 -9.83460 -41.56226 39108 ft 505 kts 30°
2026-05-06 14:25 -9.78143 -41.51564 39109 ft 509 kts 49°
2026-05-06 14:26 -9.74408 -41.45496 39103 ft 509 kts 68°
2026-05-06 14:26 -9.72212 -41.38662 39103 ft 508 kts 75°
2026-05-06 14:27 -9.70123 -41.31842 39103 ft 508 kts 73°
2026-05-06 14:27 -9.67934 -41.25069 39102 ft 509 kts 72°
2026-05-06 14:28 -9.65617 -41.18280 39104 ft 510 kts 71°
2026-05-06 14:28 -9.63188 -41.11541 39110 ft 510 kts 70°
2026-05-06 14:29 -9.60631 -41.04874 39117 ft 510 kts 69°
2026-05-06 14:29 -9.57913 -40.98233 39114 ft 510 kts 68°
2026-05-06 14:30 -9.55184 -40.91589 39109 ft 510 kts 68°
2026-05-06 14:30 -9.52449 -40.84944 39103 ft 510 kts 68°
2026-05-06 14:31 -9.49722 -40.78325 39096 ft 510 kts 68°
2026-05-06 14:31 -9.46996 -40.71711 39098 ft 510 kts 68°
2026-05-06 14:32 -9.44261 -40.65077 39093 ft 509 kts 68°
2026-05-06 14:32 -9.41545 -40.58494 39094 ft 509 kts 68°
2026-05-06 14:33 -9.38810 -40.51870 39095 ft 509 kts 68°
2026-05-06 14:33 -9.36074 -40.45250 39093 ft 509 kts 68°
2026-05-06 14:34 -9.33356 -40.38679 39089 ft 509 kts 68°
2026-05-06 14:34 -9.30607 -40.32047 39087 ft 509 kts 68°
2026-05-06 14:35 -9.27870 -40.25454 39079 ft 509 kts 68°
2026-05-06 14:35 -9.25118 -40.18825 39075 ft 509 kts 68°
2026-05-06 14:36 -9.22380 -40.12237 39077 ft 509 kts 67°
2026-05-06 14:36 -9.19636 -40.05639 39070 ft 509 kts 67°
2026-05-06 14:37 -9.16893 -39.99045 39070 ft 508 kts 68°
2026-05-06 14:37 -9.14162 -39.92487 39072 ft 508 kts 67°
2026-05-06 14:38 -9.11425 -39.85916 39078 ft 508 kts 67°
2026-05-06 14:38 -9.08636 -39.79347 39075 ft 507 kts 64°
2026-05-06 14:39 -9.04818 -39.73372 39076 ft 505 kts 49°
2026-05-06 14:39 -9.00333 -39.67959 39076 ft 505 kts 48°
2026-05-06 14:40 -8.95809 -39.62505 39077 ft 505 kts 48°
2026-05-06 14:40 -8.91305 -39.57081 39071 ft 505 kts 48°
2026-05-06 14:41 -8.86779 -39.51634 39075 ft 504 kts 48°
2026-05-06 14:41 -8.82252 -39.46191 39073 ft 504 kts 48°
2026-05-06 14:42 -8.77735 -39.40763 39067 ft 504 kts 48°
2026-05-06 14:42 -8.73238 -39.35362 39061 ft 503 kts 47°
2026-05-06 14:43 -8.68726 -39.29946 39052 ft 502 kts 47°
2026-05-06 14:43 -8.64238 -39.24561 39050 ft 501 kts 47°
2026-05-06 14:44 -8.59725 -39.19150 39051 ft 500 kts 47°
2026-05-06 14:45 -8.53004 -39.11096 39057 ft 500 kts 47°
2026-05-06 14:45 -8.48553 -39.05764 39067 ft 499 kts 47°
2026-05-06 14:46 -8.44050 -39.00373 39074 ft 499 kts 47°
2026-05-06 14:46 -8.39604 -38.95051 39075 ft 499 kts 47°
2026-05-06 14:47 -8.35108 -38.89671 39076 ft 498 kts 47°
2026-05-06 14:47 -8.30629 -38.84312 39079 ft 497 kts 47°
2026-05-06 14:48 -8.26197 -38.79017 39089 ft 496 kts 46°
2026-05-06 14:48 -8.21703 -38.73658 39087 ft 496 kts 46°
2026-05-06 14:49 -8.17224 -38.68317 39077 ft 496 kts 47°
2026-05-06 14:49 -8.12739 -38.62970 39071 ft 496 kts 47°
2026-05-06 14:50 -8.08264 -38.57639 39065 ft 495 kts 47°
2026-05-06 14:50 -8.03834 -38.52362 39062 ft 494 kts 47°
2026-05-06 14:51 -7.99376 -38.47055 39064 ft 493 kts 47°
2026-05-06 14:51 -7.94964 -38.41791 39077 ft 493 kts 47°
2026-05-06 14:52 -7.90540 -38.36495 39075 ft 492 kts 47°
2026-05-06 14:52 -7.86116 -38.31201 39081 ft 490 kts 47°
2026-05-06 14:53 -7.81708 -38.25930 39084 ft 491 kts 47°
2026-05-06 14:53 -7.77301 -38.20661 39087 ft 491 kts 47°
2026-05-06 14:54 -7.72887 -38.15413 39090 ft 491 kts 46°
2026-05-06 14:54 -7.68447 -38.10142 39088 ft 491 kts 46°
2026-05-06 14:55 -7.64054 -38.04927 39088 ft 490 kts 46°
2026-05-06 14:55 -7.59624 -37.99671 39088 ft 489 kts 46°
2026-05-06 14:56 -7.55238 -37.94469 39084 ft 488 kts 46°
2026-05-06 14:56 -7.50829 -37.89241 39073 ft 487 kts 46°
2026-05-06 14:57 -7.46450 -37.84051 39062 ft 487 kts 46°
2026-05-06 14:57 -7.42049 -37.78837 39052 ft 487 kts 47°
2026-05-06 14:58 -7.37689 -37.73672 39049 ft 486 kts 47°
2026-05-06 14:58 -7.33455 -37.68659 39055 ft 485 kts 46°
2026-05-06 14:59 -7.29091 -37.63494 39054 ft 485 kts 46°
2026-05-06 14:59 -7.24729 -37.58333 39054 ft 485 kts 46°
2026-05-06 15:00 -7.20366 -37.53162 39059 ft 485 kts 47°
2026-05-06 15:00 -7.15984 -37.47950 39041 ft 485 kts 47°
2026-05-06 15:01 -7.11645 -37.42791 39037 ft 485 kts 47°
2026-05-06 15:01 -7.07255 -37.37574 39017 ft 485 kts 47°
2026-05-06 15:02 -7.02907 -37.32408 39009 ft 484 kts 46°
2026-05-06 15:02 -6.98547 -37.27230 39005 ft 484 kts 46°
2026-05-06 15:03 -6.94158 -37.22044 39023 ft 484 kts 46°
2026-05-06 15:03 -6.89815 -37.16922 39022 ft 484 kts 46°
2026-05-06 15:03 -6.87588 -37.14296 38592 ft 488 kts 46°
2026-05-06 15:04 -6.85406 -37.11722 38070 ft 483 kts 46°
2026-05-06 15:04 -6.83244 -37.09172 37535 ft 479 kts 46°
2026-05-06 15:04 -6.81066 -37.06604 36965 ft 478 kts 46°
2026-05-06 15:04 -6.78921 -37.04077 36390 ft 478 kts 46°
2026-05-06 15:05 -6.76750 -37.01519 35797 ft 478 kts 47°
2026-05-06 15:05 -6.74607 -36.98994 35203 ft 479 kts 46°
2026-05-06 15:05 -6.72422 -36.96421 34607 ft 480 kts 47°
2026-05-06 15:05 -6.70261 -36.93875 34006 ft 482 kts 47°
2026-05-06 15:06 -6.68051 -36.91273 33404 ft 484 kts 47°
2026-05-06 15:06 -6.65822 -36.88649 32795 ft 486 kts 47°
2026-05-06 15:06 -6.63632 -36.86071 32220 ft 489 kts 47°
2026-05-06 15:06 -6.61426 -36.83474 31577 ft 491 kts 47°
2026-05-06 15:07 -6.59215 -36.80871 30979 ft 492 kts 48°
2026-05-06 15:07 -6.56972 -36.78231 30358 ft 492 kts 48°
2026-05-06 15:07 -6.54753 -36.75619 29748 ft 494 kts 48°
2026-05-06 15:07 -6.52532 -36.73006 29140 ft 494 kts 48°
2026-05-06 15:08 -6.50268 -36.70343 28527 ft 492 kts 49°
2026-05-06 15:08 -6.48064 -36.67750 27926 ft 487 kts 49°
2026-05-06 15:08 -6.45887 -36.65189 27329 ft 479 kts 49°
2026-05-06 15:08 -6.43742 -36.62665 26737 ft 472 kts 48°
2026-05-06 15:09 -6.41629 -36.60180 26152 ft 464 kts 48°
2026-05-06 15:09 -6.39547 -36.57732 25584 ft 457 kts 48°
2026-05-06 15:09 -6.37500 -36.55325 25023 ft 450 kts 48°
2026-05-06 15:09 -6.35464 -36.52932 24469 ft 443 kts 48°
2026-05-06 15:10 -6.33493 -36.50616 23929 ft 436 kts 47°
2026-05-06 15:10 -6.31546 -36.48328 23394 ft 430 kts 48°
2026-05-06 15:10 -6.29606 -36.46048 22859 ft 423 kts 47°
2026-05-06 15:10 -6.27714 -36.43825 22341 ft 417 kts 47°
2026-05-06 15:11 -6.25832 -36.41615 21822 ft 411 kts 48°
2026-05-06 15:11 -6.23979 -36.39439 21310 ft 408 kts 48°
2026-05-06 15:11 -6.22157 -36.37301 20816 ft 404 kts 48°
2026-05-06 15:11 -6.20327 -36.35152 20319 ft 402 kts 49°
2026-05-06 15:12 -6.18383 -36.33131 19830 ft 398 kts 39°
2026-05-06 15:12 -6.16179 -36.31464 19334 ft 396 kts 36°
2026-05-06 15:12 -6.13966 -36.29822 18841 ft 394 kts 36°
2026-05-06 15:12 -6.11787 -36.28201 18362 ft 393 kts 37°
2026-05-06 15:13 -6.09570 -36.26552 17873 ft 391 kts 37°
2026-05-06 15:13 -6.07396 -36.24934 17382 ft 389 kts 37°
2026-05-06 15:13 -6.05228 -36.23321 16904 ft 387 kts 37°
2026-05-06 15:13 -6.03083 -36.21726 16423 ft 383 kts 37°
2026-05-06 15:14 -6.00928 -36.20123 15937 ft 379 kts 38°
2026-05-06 15:14 -5.98870 -36.18479 15453 ft 375 kts 45°
2026-05-06 15:14 -5.97303 -36.16429 14975 ft 369 kts 62°
2026-05-06 15:14 -5.96402 -36.14074 14493 ft 364 kts 76°
2026-05-06 15:15 -5.95866 -36.11614 14009 ft 360 kts 78°
2026-05-06 15:15 -5.95342 -36.09157 13591 ft 354 kts 78°
2026-05-06 15:15 -5.94832 -36.06782 13158 ft 345 kts 78°
2026-05-06 15:15 -5.94333 -36.04456 12720 ft 336 kts 78°
2026-05-06 15:16 -5.93853 -36.02216 12319 ft 326 kts 78°
2026-05-06 15:16 -5.93383 -36.00023 11930 ft 317 kts 78°
2026-05-06 15:16 -5.92929 -35.97905 11553 ft 310 kts 78°
2026-05-06 15:16 -5.92479 -35.95810 11159 ft 303 kts 78°
2026-05-06 15:17 -5.92041 -35.93768 10779 ft 297 kts 78°
2026-05-06 15:17 -5.91608 -35.91750 10424 ft 290 kts 78°
2026-05-06 15:17 -5.91192 -35.89812 10073 ft 285 kts 78°
2026-05-06 15:17 -5.90778 -35.87884 9722 ft 279 kts 78°
2026-05-06 15:18 -5.90370 -35.85983 9378 ft 274 kts 78°
2026-05-06 15:18 -5.89970 -35.84114 9059 ft 272 kts 78°
2026-05-06 15:18 -5.89572 -35.82260 8710 ft 275 kts 79°
2026-05-06 15:18 -5.89170 -35.80384 8370 ft 272 kts 79°
2026-05-06 15:19 -5.88774 -35.78534 8028 ft 270 kts 79°
2026-05-06 15:19 -5.88383 -35.76711 7699 ft 268 kts 79°
2026-05-06 15:19 -5.87990 -35.74881 7366 ft 267 kts 79°
2026-05-06 15:19 -5.87599 -35.73055 7039 ft 265 kts 79°
2026-05-06 15:20 -5.87214 -35.71260 6722 ft 263 kts 79°
2026-05-06 15:20 -5.86827 -35.69456 6392 ft 262 kts 79°
2026-05-06 15:20 -5.86448 -35.67688 6082 ft 261 kts 79°
2026-05-06 15:20 -5.86063 -35.65895 5749 ft 260 kts 80°
2026-05-06 15:21 -5.85681 -35.64115 5435 ft 259 kts 79°
2026-05-06 15:21 -5.85306 -35.62367 5112 ft 258 kts 80°
2026-05-06 15:21 -5.84929 -35.60610 4785 ft 259 kts 80°
2026-05-06 15:21 -5.84532 -35.58860 4471 ft 255 kts 76°
2026-05-06 15:22 -5.83729 -35.57293 4128 ft 254 kts 55°
2026-05-06 15:22 -5.82378 -35.56128 3758 ft 256 kts 33°
2026-05-06 15:22 -5.80683 -35.55548 3303 ft 261 kts 14°
2026-05-06 15:22 -5.78912 -35.55268 2920 ft 252 kts 12°
2026-05-06 15:23 -5.77227 -35.54975 2629 ft 240 kts 20°
2026-05-06 15:23 -5.75779 -35.54258 2348 ft 223 kts 45°
2026-05-06 15:23 -5.74886 -35.53057 2162 ft 208 kts 72°
2026-05-06 15:23 -5.74619 -35.51692 1991 ft 194 kts 97°
2026-05-06 15:24 -5.74795 -35.50414 1995 ft 173 kts 102°
2026-05-06 15:24 -5.74952 -35.49281 2004 ft 168 kts 101°
2026-05-06 15:24 -5.75114 -35.48195 1978 ft 166 kts 102°
2026-05-06 15:24 -5.75298 -35.47051 1971 ft 164 kts 101°
2026-05-06 15:25 -5.75485 -35.45903 1751 ft 163 kts 102°
2026-05-06 15:25 -5.75661 -35.44805 1593 ft 151 kts 103°
2026-05-06 15:25 -5.75814 -35.43843 1446 ft 125 kts 101°
2026-05-06 15:25 -5.75954 -35.42989 1292 ft 124 kts 103°
2026-05-06 15:26 -5.76093 -35.42155 1107 ft 120 kts 101°
2026-05-06 15:26 -5.76224 -35.41314 960 ft 122 kts 103°
2026-05-06 15:26 -5.76367 -35.40474 806 ft 122 kts 102°
2026-05-06 15:26 -5.76500 -35.39630 662 ft 122 kts 103°
2026-05-06 15:27 -5.76640 -35.38790 507 ft 123 kts 104°
2026-05-06 15:27 -5.76774 -35.37941 350 ft 123 kts 103°
2026-05-06 15:27 -5.76902 -35.37142 289 ft 105 kts 100°
2026-05-06 15:27 -5.76978 -35.36685 289 ft 35 kts 95°
2026-05-06 15:28 -5.76937 -35.36485 288 ft 19 kts 66°
2026-05-06 15:28 -5.76890 -35.36422 288 ft 9 kts 23°
2026-05-06 15:28 -5.76842 -35.36471 288 ft 13 kts 278°
2026-05-06 15:28 -5.76825 -35.36579 289 ft 17 kts 279°
2026-05-06 15:29 -5.76804 -35.36717 289 ft 21 kts 280°
2026-05-06 15:29 -5.76776 -35.36881 289 ft 25 kts 280°
2026-05-06 15:29 -5.76743 -35.37069 289 ft 28 kts 281°
2026-05-06 15:29 -5.76718 -35.37217 289 ft 14 kts 278°
2026-05-06 15:30 -5.76643 -35.37255 289 ft 15 kts 12°
2026-05-06 15:30 -5.76550 -35.37244 289 ft 12 kts 342°
2026-05-06 15:30 -5.76516 -35.37337 289 ft 16 kts 278°
2026-05-06 15:30 -5.76496 -35.37466 289 ft 13 kts 281°
2026-05-06 15:31 -5.76462 -35.37529 289 ft 11 kts
2026-05-06 15:31 -5.76417 -35.37521 289 ft 2 kts
2026-05-06 15:31 -5.76409 -35.37520 289 ft 0 kts